TimeCET,TemperatureF,Dew PointF,Humidity,Sea Level PressureIn,VisibilityMPH,Wind Direction,Wind SpeedMPH,Gust SpeedMPH,PrecipitationIn,Events,Conditions,WindDirDegrees,DateUTC
12:00 AM,46.4,42.8,87,29.74,-9999.0,North,4.6,-,N/A,,Clear,350,2012-11-03 23:00:00
1:00 AM,44.6,41.0,87,29.74,-9999.0,Calm,Calm,-,N/A,,Clear,0,2012-11-04 00:00:00
2:00 AM,42.8,39.2,87,29.74,-9999.0,Calm,Calm,-,N/A,,Clear,0,2012-11-04 01:00:00
3:00 AM,41.0,41.0,100,29.74,-9999.0,Calm,Calm,-,N/A,,Clear,0,2012-11-04 02:00:00
4:00 AM,42.8,41.0,93,29.74,-9999.0,Variable,1.2,-,N/A,,Clear,0,2012-11-04 03:00:00
5:00 AM,42.8,41.0,93,29.77,-9999.0,Calm,Calm,-,N/A,,Clear,0,2012-11-04 04:00:00
6:00 AM,42.8,41.0,93,29.77,6.2,West,2.3,-,N/A,,Overcast,270,2012-11-04 05:00:00
7:00 AM,42.8,41.0,93,29.77,3.7,Variable,2.3,-,N/A,,Overcast,0,2012-11-04 06:00:00
8:00 AM,44.6,42.8,93,29.77,-9999.0,East,3.5,-,N/A,,Clear,90,2012-11-04 07:00:00
9:00 AM,46.4,42.8,87,29.80,-9999.0,Variable,1.2,-,N/A,,Clear,0,2012-11-04 08:00:00
10:00 AM,48.2,42.8,82,29.77,-9999.0,Variable,2.3,-,N/A,,Clear,0,2012-11-04 09:00:00
11:00 AM,48.2,44.6,87,29.77,-9999.0,SE,3.5,-,N/A,,Clear,130,2012-11-04 10:00:00
12:00 PM,51.8,44.6,76,29.74,-9999.0,ESE,3.5,-,N/A,,Clear,110,2012-11-04 11:00:00
1:00 PM,55.4,42.8,63,29.71,-9999.0,East,5.8,-,N/A,,Clear,100,2012-11-04 12:00:00
2:00 PM,55.4,46.4,72,29.68,-9999.0,East,10.4,-,N/A,,Clear,100,2012-11-04 13:00:00
3:00 PM,53.6,46.4,77,29.68,-9999.0,ESE,13.8,-,N/A,,Clear,120,2012-11-04 14:00:00
4:00 PM,51.8,44.6,76,29.65,-9999.0,ESE,9.2,-,N/A,,Clear,120,2012-11-04 15:00:00
5:00 PM,50.0,44.6,82,29.65,-9999.0,SE,8.1,-,N/A,,Clear,130,2012-11-04 16:00:00
6:00 PM,48.2,44.6,87,29.62,-9999.0,ESE,6.9,-,N/A,,Clear,120,2012-11-04 17:00:00
7:00 PM,48.2,44.6,87,29.56,-9999.0,ESE,8.1,-,N/A,,Clear,110,2012-11-04 18:00:00
8:00 PM,50.0,44.6,82,29.53,-9999.0,North,3.5,-,N/A,,Clear,350,2012-11-04 19:00:00
9:00 PM,48.2,44.6,87,29.53,-9999.0,Variable,2.3,-,N/A,,Clear,0,2012-11-04 20:00:00
10:00 PM,46.4,44.6,93,29.53,-9999.0,Variable,2.3,-,N/A,,Clear,0,2012-11-04 21:00:00
11:00 PM,46.4,44.6,93,29.50,6.2,West,3.5,-,N/A,,Overcast,280,2012-11-04 22:00:00